Location: Vulcan
(50.4000°N, 113.2500°W)
Time: 15:59:01
(UTC-07:00)

Transit 2A - Visible Passes

Search period start: 16 November 2019 00:00
Search period end: 26 November 2019 00:00
Orbit: 601 x 957 km, 66.7° (Epoch: 16 November)

Date Brightness Start Highest point End Pass type
(mag) Time Alt. Az. Time Alt. Az. Time Alt. Az.
16 Nov 7.8 18:34:22 10° N 18:35:38 11° NNE 18:36:05 11° NNE visible
16 Nov 8.4 20:16:32 10° NNW 20:16:34 10° NNW 20:16:34 10° NNW visible
17 Nov 7.8 18:00:41 10° N 18:01:06 10° N 18:01:32 10° NNE visible
17 Nov 8.0 19:42:32 10° NNW 19:43:20 13° N 19:43:20 13° N visible
18 Nov 7.6 19:08:35 10° NNW 19:10:06 15° N 19:10:06 15° N visible
19 Nov 7.5 18:34:38 10° NNW 18:36:54 15° NNE 18:36:54 15° NNE visible
19 Nov 8.3 20:17:02 10° NNW 20:17:24 12° NNW 20:17:24 12° NNW visible
20 Nov 7.5 18:00:44 10° N 18:02:42 13° NNE 18:03:44 12° NNE visible
20 Nov 7.7 19:43:00 10° NNW 19:44:14 17° NNW 19:44:14 17° NNW visible
21 Nov 7.6 17:26:51 10° N 17:28:13 11° NNE 17:29:34 10° NNE visible
21 Nov 7.2 19:09:00 10° NNW 19:11:07 22° N 19:11:07 22° N visible
22 Nov 6.9 18:35:01 10° NNW 18:38:02 22° NNE 18:38:02 22° NNE visible
22 Nov 8.2 20:17:44 10° NW 20:18:32 15° NW 20:18:32 15° NW visible
23 Nov 7.0 18:01:02 10° NNW 18:04:09 18° NNE 18:05:02 17° NE visible
23 Nov 7.3 19:43:36 10° NW 19:45:32 26° NNW 19:45:32 26° NNW visible
24 Nov 7.3 17:27:06 10° NNW 17:29:44 15° NNE 17:32:07 11° ENE visible
24 Nov 6.3 19:09:31 10° NNW 19:12:37 41° N 19:12:37 41° N visible
25 Nov 5.9 18:35:28 10° NNW 18:39:36 40° NE 18:39:49 40° NE visible
25 Nov 8.0 20:18:46 10° NW 20:20:20 19° WNW 20:20:20 19° WNW visible
